Gold Country Challenge - Toss 6 - 1.7 Miles

Station: High School - T Race

Distance: 1.7 Miles    

Release: 12-Aug-2017 07:00

Weather Release: Mostly Clear    Arrival: Light Haze

Wind at Release:     Wind at Arrival:

Temp at Release: °    Temp at Arrival: °

Lofts: 92

Birds: 410

Clocked: 407

Next toss from Georgetown 6 Miles
Drops Pos Breeder Pigeon Name Color Sex Ent Arrival Speed To Win Eligible Champ
1 Eastern Pearl Loft - VA 0205-AU17-EPL 🈚️量 205 BB H 1 07:52:47.10 56.683 00:00:00 Yes
2 H & H Flying Circus - CA 0711-AU17-ML BC H 1 07:52:57.00 56.506 00:00:10 Yes
3 Genesis Syndicate Loft - AZ 0368-AU17-GEN BC H 1 07:52:59.50 56.462 00:00:12 Yes
4 Bieche-Stevenson - CA 7153-AU17-BIE RC H 1 07:53:01.30 56.430 00:00:14 Yes
5 Blue - Face - CA 1111-AU17-FVC BC H 1 07:53:01.80 56.421 00:00:15 Yes
6 H & H Flying Circus - CA 0712-AU17-ML BB H 2 07:53:02.90 56.401 00:00:16 Yes
7 California Breeders Syndicate - CA 19030-AU17-AA BC H 1 07:53:03.60 56.389 00:00:17 Yes
8 Richard Callahan - MO 1682-AU17-AA BB H 1 07:53:04.10 56.380 00:00:17 Yes
9 California Breeders Syndicate - CA 36119-AU17-BB Firefly BB H 2 07:53:04.90 56.366 00:00:18 Yes
10 D B Loft - CA 4139-AU17-JEDD '' HOME ALONE'' BB H 1 07:53:08.50 56.302 00:00:21 Yes
11 Loizzi - Sikora - CA 3767-AU17-FVC BB H 1 07:53:10.10 56.274 00:00:23 Yes
12 Marengo Creek Farms - AL 2716-AU17-MCF BB H 1 07:53:13.70 56.211 00:00:27 Yes
13 Eastern Pearl Loft - VA 0225-AU17-EPL 🈚️量 225 BC H 2 07:53:14.30 56.200 00:00:27 Yes
14 Dream Team - VT 0345-AU17-JCZL 6817 x 35553 BCSP H 1 07:53:18.50 56.126 00:00:31 Yes
15 Eastern Pearl Loft - VA 0241-AU17-EPL 🈚️量 241 BB H 3 07:53:23.00 56.047 00:00:36 Yes
16 Eastern Pearl Loft - VA 0251-AU17-EPL 🈚️量 251 BC H 4 07:53:27.40 55.971 00:00:40 Yes
17 Goshentown Lofts - TN 3417-AU17-VITA BB H 1 07:53:29.10 55.941 00:00:42 Yes
18 Skychargers - CA 0186-AU17-SD DC H 1 07:53:32.00 55.890 00:00:45 Yes
19 Kay Eastwood - CA 19119-AU17-AA BB H 1 07:53:35.70 55.826 00:00:49 Yes
20 Genesis Syndicate Loft - AZ 0348-AU17-GEN BB H 2 07:53:36.60 55.810 00:00:50 Yes
21 Dennis Bisnett - CA 0903-AU17-ML BC H 1 07:53:37.40 55.797 00:00:50 Yes
22 Fog City Loft - CA 2328-AU17-FCL BB H 1 07:53:46.60 55.638 00:00:59 Yes
23 A P C Loft - TX 17169-AU17-APC BB H 1 07:53:48.00 55.613 00:01:01 Yes
24 Applis Loft - MO 40852-AU17-AA Choco Gianni CHOC H 1 07:53:49.00 55.596 00:01:02 Yes
25 Delmon And Oregel Lofty - NV 14189-AU17-AA BC H 1 07:53:49.80 55.582 00:01:03 Yes
26 Al Shulman - CA 0206-AU17-WSJ BBPD H 1 07:53:50.30 55.574 00:01:03 Yes
26 America's Dream Loft - IL 0074-AU17-ADL BC H 1 07:53:50.30 55.574 00:01:03 Yes
28 King Rps Loft - CA 2544-AU17-SFR €€ BOOMERANG 2 €€ BC H 1 07:53:53.50 55.519 00:01:06 Yes
29 Kim Wong - VT 10861-AU17-ARPU BB H 1 07:53:56.80 55.462 00:01:10 Yes
30 Smith R P L - UT 3082-AU17-SRPL BB H 1 07:54:02.30 55.368 00:01:15 Yes
31 Lechuga Loft - TX 0143-AU17-AMA BB H 1 07:54:02.70 55.361 00:01:16 Yes
32 California Breeders Syndicate - CA 4583-AU17-AA RC H 3 07:54:03.40 55.349 00:01:16 Yes
33 Jack's Loft - CA 4381-AU17-FOYS GRIZ H 1 07:54:05.40 55.315 00:01:18 Yes
34 Racing Pigeon Mall - WA 0700-AU17-RPM BC H 1 07:54:07.10 55.286 00:01:20 Yes
35 Silicon Valley Syndicates - CA 0806-AU17-JEDD BB H 1 07:54:07.90 55.273 00:01:21 Yes
36 Dj Loft Of Utah - UT 35622-AU17-ARPU ADDISONS EMPIRE WHT H 1 07:54:10.90 55.222 00:01:24 Yes
37 Fleet Washington - DC 1722-AU17-FLET BBWF H 1 07:54:13.10 55.184 00:01:26 Yes
38 Skychargers - CA 0517-AU17-CORO BBPD H 2 07:54:13.40 55.179 00:01:26 Yes
39 Skylinerpl.Com - UT 0088-AU17-UVI "Bettini Lady" BB H 1 07:54:16.90 55.120 00:01:30 Yes
40 Joe Sanford - CA 4400-AU17-JEDD BBSP H 1 07:54:17.40 55.111 00:01:30 Yes
41 Perfection Loft - KS 3723-AU17-AA BB H 1 07:54:18.30 55.096 00:01:31 Yes
42 Flying W - CA 0522-AU17-AUB BC H 1 07:54:20.00 55.067 00:01:33 Yes
43 H & H Flying Circus - CA 0713-AU17-ML PIED H 3 07:54:22.70 55.022 00:01:36 Yes
44 Perfection Loft - KS 3720-AU17-AA BB H 2 07:54:25.40 54.976 00:01:38 Yes
45 Dream Team - VT 0781-AU17-JCZL BB H 2 07:54:32.20 54.862 00:01:45 Yes
46 B S Lofts - CA 0228-AU17-BSL Sandy KMP BB H 1 07:54:32.80 54.852 00:01:46 Yes
47 Cloux Loft - CO 8127-AU17-FH BB H 1 07:54:43.00 54.682 00:01:56 Yes
48 Perfection Loft & Torres Loft - KS 3725-AU17-AA BB H 3 07:54:44.10 54.663 00:01:57 Yes
49 Barrett Family Loft - IL 0011-AU17-BARR BB H 1 07:54:47.80 54.602 00:02:01 Yes
50 Plymouth Peak Pro Challenge - UT 7123-AU17-GS BBWF H 1 07:54:53.60 54.506 00:02:06 Yes
51 California Breeders Syndicate - CA 1168-AU17-AA Brutus BC H 4 07:55:00.50 54.392 00:02:13 Yes
52 Fleet Washington - DC 1769-AU17-FLET BB H 2 07:55:02.00 54.367 00:02:15 Yes
53 Silicon Valley Syndicates - CA 0807-AU17-JEDD BB H 2 07:55:02.30 54.362 00:02:15 Yes
54 Rob Wilson - CA 1303-AU17-AVC BB H 1 07:55:02.80 54.354 00:02:16 Yes
55 P N W Challenge - ID 7032-AU17-PNWC "5030-12" BB H 1 07:55:03.50 54.342 00:02:16 Yes
56 All In - CA 8499-AU17-BON BB H 1 07:55:04.00 54.334 00:02:17 Yes
57 Genesis Syndicate Loft - AZ 0358-AU17-GEN BC H 3 07:55:04.50 54.326 00:02:17 Yes
58 A P C Loft - TX 17164-AU17-APC SLT H 2 07:55:06.50 54.293 00:02:19 Yes
59 Dream Team - VT 0323-AU17-JCZL 6807 x 27873 BB H 3 07:55:09.50 54.244 00:02:22 Yes
60 Chala Loft - WA 1756-AU17-EVE BB H 1 07:55:09.80 54.239 00:02:23 Yes
61 V Lin - IA 0369-AU17-VLIN BC H 1 07:55:11.60 54.209 00:02:25 Yes
62 Ron Brooks - AR 1722-AU17-REB BC H 1 07:55:16.10 54.136 00:02:29 Yes
63 Tom O`Brien - CA 70809-AU17-SOC BB H 1 07:55:16.40 54.131 00:02:29 Yes
64 Barrett Family Loft - IL 0021-AU17-BARR BC H 2 07:55:17.50 54.113 00:02:30 Yes
65 Mike Belus - CA 6734-AU17-JEDD BB H 1 07:55:20.00 54.072 00:02:33 Yes
66 Genesis Syndicate Loft - AZ 0355-AU17-GEN PIED H 4 07:55:25.20 53.988 00:02:38 Yes
67 Jerry Gatto - CA 1100-AU17-HANG DCSP H 1 07:55:28.20 53.939 00:02:41 Yes
68 Mike Belus - CA 6728-AU17-JEDD BB H 2 07:55:31.10 53.892 00:02:44 Yes
69 Delmon And Oregel Lofty - NV 2496-AU17-WSJ BB H 2 07:55:31.80 53.881 00:02:45 Yes
70 Kay Eastwood - CA 19026-AU17-AA BB H 2 07:55:34.20 53.842 00:02:47 Yes
71 Lopez/ Saenz - CA 0849-AU17-TCH BB H 1 07:55:42.60 53.707 00:02:55 Yes
72 All In - CA 8472-AU17-BON BB H 2 07:55:43.20 53.697 00:02:56 Yes
73 De La O-Siino - CA 4049-AU17-COOK BC H 1 07:55:43.70 53.689 00:02:57 Yes
74 Hayloft - CA 7330-AU17-GSF BC H 1 07:55:44.20 53.681 00:02:57 Yes
75 Nanez Family Lofts - WI 4297-AU17-NFL PIED H 1 07:55:45.80 53.655 00:02:59 Yes
76 Tou Loft - TN 0106-AU17-TOU PIED H 1 07:55:51.50 53.564 00:03:04 Yes
77 Dennis Bisnett - CA 0901-AU17-ML BB H 2 07:55:55.70 53.497 00:03:09 Yes
78 Ceyx Loft - CA 0851-AU17-CEYX BC H 1 07:56:13.10 53.221 00:03:26 Yes
79 Kim Wong - VT 10880-AU17-ARPU BC H 2 07:56:14.30 53.202 00:03:27 Yes
80 Valhalla Loft - CA 0406-AU17-WSJ DC H 1 07:56:17.20 53.156 00:03:30 Yes
81 Thunder Birds Breeding Loft - TX 19812-AU17-ARPU Schellen's Dream BC H 1 07:56:19.10 53.127 00:03:32 Yes
82 Lopez/ Saenz - CA 0833-AU17-TCH DC H 2 07:56:35.20 52.875 00:03:48 Yes
83 Nanez Family Lofts - WI 4179-AU17-NFL BB H 2 07:56:35.30 52.873 00:03:48 Yes
84 Skychargers - CA 0522-AU17-COLR PIED H 3 07:56:36.40 52.856 00:03:49 Yes
85 Plymouth Peak Pro Challenge - UT 7112-AU17-GS BCWF H 2 07:56:43.30 52.749 00:03:56 Yes
86 Sierra Ranch - CA 0773-AU17-SR BB H 1 07:56:46.30 52.702 00:03:59 Yes
87 Blue - Face - CA 1110-AU17-FVC BC H 2 07:56:47.10 52.690 00:04:00 Yes
88 Drama Queen Loft - TX 0321-AU17-GCI BBWF H 1 07:56:49.70 52.650 00:04:03 Yes
89 Joe Sanford - CA 4372-AU17-JEDD OPAL H 2 07:56:53.30 52.594 00:04:06 Yes
90 Ap Amy - MD 11996-IF17-FOYS PIED H 1 07:56:57.70 52.527 00:04:11 Yes
91 Drama Queen Loft - TX 0336-AU17-GCI BB H 2 07:57:02.10 52.459 00:04:15 Yes
92 John Hedderson - CA 6998-AU17-FSC 200x773 BB H 1 07:57:17.00 52.232 00:04:30 Yes
93 Loizzi - Sikora - CA 3716-AU17-FVC BBWF H 2 07:57:17.60 52.222 00:04:31 Yes
94 Dream Team - VT 0799-AU17-JCZL DC H 4 07:57:22.00 52.156 00:04:35 Yes
95 Kay Eastwood - CA 19023-AU17-AA BB H 3 07:57:22.10 52.154 00:04:35 Yes
96 H & H Flying Circus - CA 0706-AU17-ML BB H 4 07:57:29.60 52.041 00:04:43 Yes
97 H & H Flying Circus - CA 0707-AU17-ML BC H 5 07:57:37.10 51.928 00:04:50 Yes
98 Flying W - CA 0506-AU17-AUB SLT H 2 07:57:38.30 51.910 00:04:51 Yes
99 All In - CA 8473-AU17-BON BB H 3 07:57:41.40 51.863 00:04:54 Yes
100 A P C Loft - TX 17220-AU17-APC BB H 3 07:57:41.80 51.857 00:04:55 Yes

There are 404 bird records

Note: These Race Results are unofficial and subject to change until verified by the Race Committee and declared final.